STARLINK-32322

Last updated on Thu Nov 21 2024 00:02:05 GMT+0000 (Coordinated Universal Time)

1 61720U 24196P 24325.58335648 -.01405914 00000+0 -13450-1 0 9995 2 61720 53.1596 149.2898 0000958 85.6462 59.1222 15.69101417 4539
UTC large
Height (km)
Speed (km/s)
/
Latitude / Longitude
Inclination (degrees)
Orbital Period (minutes)
Azimuth
Elevation
Range (km)
Doppler Factor

Next 0 passes for location: London (51.5072 / 0.1276)

Sorry there are no passes over London.